Time,TemperatureF,DewpointF,PressureIn,WindDirection,WindDirectionDegrees,WindSpeedMPH,WindSpeedGustMPH,Humidity,HourlyPrecipIn,Conditions,Clouds,dailyrainin,SolarRadiationWatts/m^2,SoftwareType,DateUTC
2013-06-23 00:02:00,42.0,41.0,-100.00,North,0,0.0,2.0,96,0.00,,,0.36,0.000000,,2013-06-23 06:02:00,
2013-06-23 00:12:00,42.0,41.0,-100.00,North,0,0.0,2.0,96,0.00,,,0.36,0.000000,,2013-06-23 06:12:00,
2013-06-23 00:22:00,42.0,41.0,-100.00,North,0,0.0,2.0,96,0.00,,,0.36,0.000000,,2013-06-23 06:22:00,
2013-06-23 00:33:00,42.0,41.0,-100.00,North,0,0.0,2.0,96,0.00,,,0.36,0.000000,,2013-06-23 06:33:00,
2013-06-23 01:02:00,42.0,40.0,-100.00,NNE,28,1.0,4.0,94,0.01,,,0.37,0.000000,,2013-06-23 07:02:00,
2013-06-23 01:12:00,42.0,40.0,-100.00,NNE,28,1.0,4.0,94,0.01,,,0.37,0.000000,,2013-06-23 07:12:00,
2013-06-23 01:22:00,42.0,40.0,-100.00,NNE,28,1.0,4.0,94,0.01,,,0.37,0.000000,,2013-06-23 07:22:00,
2013-06-23 01:34:00,42.0,40.0,-100.00,NNE,28,1.0,4.0,94,0.01,,,0.37,0.000000,,2013-06-23 07:34:00,
2013-06-23 02:02:00,40.0,39.0,-100.00,NNE,21,0.0,4.0,95,0.00,,,0.37,0.000000,,2013-06-23 08:02:00,
2013-06-23 02:12:00,40.0,39.0,-100.00,NNE,21,0.0,4.0,95,0.00,,,0.37,0.000000,,2013-06-23 08:12:00,
2013-06-23 02:22:00,40.0,39.0,-100.00,NNE,21,0.0,4.0,95,0.00,,,0.37,0.000000,,2013-06-23 08:22:00,
2013-06-23 02:34:00,40.0,39.0,-100.00,NNE,21,0.0,4.0,95,0.00,,,0.37,0.000000,,2013-06-23 08:34:00,
2013-06-23 03:02:00,37.0,36.0,-100.00,NNE,19,1.0,3.0,95,0.00,,,0.37,0.000000,,2013-06-23 09:02:00,
2013-06-23 03:12:00,37.0,36.0,-100.00,NNE,19,1.0,3.0,95,0.00,,,0.37,0.000000,,2013-06-23 09:12:00,
2013-06-23 03:22:00,37.0,36.0,-100.00,NNE,19,1.0,3.0,95,0.00,,,0.37,0.000000,,2013-06-23 09:22:00,
2013-06-23 03:34:00,37.0,36.0,-100.00,NNE,19,1.0,3.0,95,0.00,,,0.37,0.000000,,2013-06-23 09:34:00,
2013-06-23 04:02:00,38.0,37.0,-100.00,NNE,30,0.0,3.0,96,0.00,,,0.37,0.000000,,2013-06-23 10:02:00,
2013-06-23 04:11:00,38.0,37.0,-100.00,NNE,30,0.0,3.0,96,0.00,,,0.37,0.000000,,2013-06-23 10:11:00,
2013-06-23 04:22:00,38.0,37.0,-100.00,NNE,30,0.0,3.0,96,0.00,,,0.37,0.000000,,2013-06-23 10:22:00,
2013-06-23 04:34:00,38.0,37.0,-100.00,NNE,30,0.0,3.0,96,0.00,,,0.37,0.000000,,2013-06-23 10:34:00,
2013-06-23 05:01:00,36.0,35.0,-100.00,NNE,12,1.0,3.0,96,0.00,,,0.37,0.000000,,2013-06-23 11:01:00,
2013-06-23 05:11:00,36.0,35.0,-100.00,NNE,12,1.0,3.0,96,0.00,,,0.37,0.000000,,2013-06-23 11:11:00,
2013-06-23 05:22:00,36.0,35.0,-100.00,NNE,12,1.0,3.0,96,0.00,,,0.37,0.000000,,2013-06-23 11:22:00,
2013-06-23 05:33:00,36.0,35.0,-100.00,NNE,12,1.0,3.0,96,0.00,,,0.37,0.000000,,2013-06-23 11:33:00,
2013-06-23 06:01:00,39.0,36.0,-100.00,ENE,62,0.0,2.0,89,0.00,,,0.37,3.000000,,2013-06-23 12:01:00,
2013-06-23 06:12:00,39.0,36.0,-100.00,ENE,62,0.0,2.0,89,0.00,,,0.37,3.000000,,2013-06-23 12:12:00,
2013-06-23 06:22:00,39.0,36.0,-100.00,ENE,62,0.0,2.0,89,0.00,,,0.37,3.000000,,2013-06-23 12:22:00,
2013-06-23 06:33:00,39.0,36.0,-100.00,ENE,62,0.0,2.0,89,0.00,,,0.37,3.000000,,2013-06-23 12:33:00,
2013-06-23 07:02:00,41.0,37.0,-100.00,NE,40,0.0,2.0,84,0.00,,,0.37,28.000000,,2013-06-23 13:02:00,
2013-06-23 07:11:00,41.0,37.0,-100.00,NE,40,0.0,2.0,84,0.00,,,0.37,28.000000,,2013-06-23 13:11:00,
2013-06-23 07:23:00,41.0,37.0,-100.00,NE,40,0.0,2.0,84,0.00,,,0.37,28.000000,,2013-06-23 13:23:00,
2013-06-23 07:34:00,41.0,37.0,-100.00,NE,40,0.0,2.0,84,0.00,,,0.37,28.000000,,2013-06-23 13:34:00,
2013-06-23 08:04:00,47.0,37.0,-100.00,WNW,295,4.0,8.0,69,0.00,,,0.37,29.000000,,2013-06-23 14:04:00,
2013-06-23 08:11:00,47.0,37.0,-100.00,WNW,295,4.0,8.0,69,0.00,,,0.37,29.000000,,2013-06-23 14:11:00,
2013-06-23 08:22:00,47.0,37.0,-100.00,WNW,295,4.0,8.0,69,0.00,,,0.37,29.000000,,2013-06-23 14:22:00,
2013-06-23 08:34:00,47.0,37.0,-100.00,WNW,295,4.0,8.0,69,0.00,,,0.37,29.000000,,2013-06-23 14:34:00,
2013-06-23 09:05:00,52.0,37.0,-100.00,WNW,283,5.0,13.0,57,0.00,,,0.36,46.000000,,2013-06-23 15:05:00,
2013-06-23 09:11:00,52.0,37.0,-100.00,WNW,283,5.0,13.0,57,0.00,,,0.36,46.000000,,2013-06-23 15:11:00,
2013-06-23 09:22:00,52.0,37.0,-100.00,WNW,283,5.0,13.0,57,0.00,,,0.36,46.000000,,2013-06-23 15:22:00,
2013-06-23 09:35:00,52.0,37.0,-100.00,WNW,283,5.0,13.0,57,0.00,,,0.36,46.000000,,2013-06-23 15:35:00,
2013-06-23 09:36:00,55.0,36.0,-100.00,NW,307,6.0,12.0,48,0.00,,,0.36,599.000000,,2013-06-23 15:36:00,
2013-06-23 10:06:00,55.0,36.0,-100.00,NW,307,6.0,12.0,48,0.00,,,0.36,599.000000,,2013-06-23 16:06:00,
2013-06-23 10:12:00,55.0,36.0,-100.00,NW,307,6.0,12.0,48,0.00,,,0.36,599.000000,,2013-06-23 16:12:00,
2013-06-23 10:22:00,55.0,36.0,-100.00,NW,307,6.0,12.0,48,0.00,,,0.36,599.000000,,2013-06-23 16:22:00,
2013-06-23 11:04:00,58.0,40.0,-100.00,West,259,5.0,9.0,51,0.00,,,0.36,851.000000,,2013-06-23 17:04:00,
2013-06-23 11:12:00,58.0,40.0,-100.00,West,259,5.0,9.0,51,0.00,,,0.36,851.000000,,2013-06-23 17:12:00,
2013-06-23 11:22:00,58.0,40.0,-100.00,West,259,5.0,9.0,51,0.00,,,0.36,851.000000,,2013-06-23 17:22:00,
2013-06-23 11:33:00,58.0,40.0,-100.00,West,259,5.0,9.0,51,0.00,,,0.36,851.000000,,2013-06-23 17:33:00,
2013-06-23 12:01:00,60.0,39.0,-100.00,West,264,4.0,11.0,46,0.00,,,0.36,965.000000,,2013-06-23 18:01:00,
2013-06-23 12:11:00,60.0,39.0,-100.00,West,264,4.0,11.0,46,0.00,,,0.36,965.000000,,2013-06-23 18:11:00,
2013-06-23 12:22:00,60.0,39.0,-100.00,West,264,4.0,11.0,46,0.00,,,0.36,965.000000,,2013-06-23 18:22:00,
2013-06-23 12:34:00,60.0,39.0,-100.00,West,264,4.0,11.0,46,0.00,,,0.36,965.000000,,2013-06-23 18:34:00,
2013-06-23 13:01:00,61.0,35.0,-100.00,WSW,254,5.0,13.0,38,0.00,,,0.36,1029.000000,,2013-06-23 19:01:00,
2013-06-23 13:11:00,61.0,35.0,-100.00,WSW,254,5.0,13.0,38,0.00,,,0.36,1029.000000,,2013-06-23 19:11:00,
2013-06-23 13:21:00,61.0,35.0,-100.00,WSW,254,5.0,13.0,38,0.00,,,0.36,1029.000000,,2013-06-23 19:21:00,
2013-06-23 13:32:00,61.0,35.0,-100.00,WSW,254,5.0,13.0,38,0.00,,,0.36,1029.000000,,2013-06-23 19:32:00,
2013-06-23 14:02:00,62.0,36.0,-100.00,SW,223,5.0,10.0,38,0.00,,,0.36,1041.000000,,2013-06-23 20:02:00,
2013-06-23 14:12:00,62.0,36.0,-100.00,SW,223,5.0,10.0,38,0.00,,,0.36,1041.000000,,2013-06-23 20:12:00,
2013-06-23 14:24:00,62.0,36.0,-100.00,SW,223,5.0,10.0,38,0.00,,,0.36,1041.000000,,2013-06-23 20:24:00,
2013-06-23 14:33:00,62.0,36.0,-100.00,SW,223,5.0,10.0,38,0.00,,,0.36,1041.000000,,2013-06-23 20:33:00,
2013-06-23 15:01:00,63.0,36.0,-100.00,SSW,196,5.0,13.0,37,0.00,,,0.36,1004.000000,,2013-06-23 21:01:00,
2013-06-23 15:11:00,63.0,36.0,-100.00,SSW,196,5.0,13.0,37,0.00,,,0.36,1004.000000,,2013-06-23 21:11:00,
2013-06-23 15:22:00,63.0,36.0,-100.00,SSW,196,5.0,13.0,37,0.00,,,0.36,1004.000000,,2013-06-23 21:22:00,
2013-06-23 15:33:00,63.0,36.0,-100.00,SSW,196,5.0,13.0,37,0.00,,,0.36,1004.000000,,2013-06-23 21:33:00,
2013-06-23 16:01:00,63.0,35.0,-100.00,SSW,211,5.0,13.0,35,0.00,,,0.36,904.000000,,2013-06-23 22:01:00,
2013-06-23 16:11:00,63.0,35.0,-100.00,SSW,211,5.0,13.0,35,0.00,,,0.36,904.000000,,2013-06-23 22:11:00,
2013-06-23 16:22:00,63.0,35.0,-100.00,SSW,211,5.0,13.0,35,0.00,,,0.36,904.000000,,2013-06-23 22:22:00,
2013-06-23 16:32:00,63.0,35.0,-100.00,SSW,211,5.0,13.0,35,0.00,,,0.36,904.000000,,2013-06-23 22:32:00,
2013-06-23 17:01:00,64.0,40.0,-100.00,SW,219,4.0,15.0,41,0.00,,,0.36,229.000000,,2013-06-23 23:01:00,
2013-06-23 17:11:00,64.0,40.0,-100.00,SW,219,4.0,15.0,41,0.00,,,0.36,229.000000,,2013-06-23 23:11:00,
2013-06-23 17:22:00,64.0,40.0,-100.00,SW,219,4.0,15.0,41,0.00,,,0.36,229.000000,,2013-06-23 23:22:00,
2013-06-23 17:33:00,64.0,40.0,-100.00,SW,219,4.0,15.0,41,0.00,,,0.36,229.000000,,2013-06-23 23:33:00,
2013-06-23 18:01:00,64.0,40.0,-100.00,SW,235,4.0,9.0,41,0.00,,,0.13,535.000000,,2013-06-24 00:01:00,
2013-06-23 18:11:00,64.0,40.0,-100.00,SW,235,4.0,9.0,41,0.00,,,0.13,535.000000,,2013-06-24 00:11:00,
2013-06-23 18:22:00,64.0,40.0,-100.00,SW,235,4.0,9.0,41,0.00,,,0.13,535.000000,,2013-06-24 00:22:00,
2013-06-23 18:33:00,64.0,40.0,-100.00,SW,235,4.0,9.0,41,0.00,,,0.13,535.000000,,2013-06-24 00:33:00,
2013-06-23 19:01:00,65.0,40.0,-100.00,SSW,205,4.0,9.0,40,0.00,,,0.01,153.000000,,2013-06-24 01:01:00,
2013-06-23 19:11:00,65.0,40.0,-100.00,SSW,205,4.0,9.0,40,0.00,,,0.01,153.000000,,2013-06-24 01:11:00,
2013-06-23 19:22:00,65.0,40.0,-100.00,SSW,205,4.0,9.0,40,0.00,,,0.01,153.000000,,2013-06-24 01:22:00,
2013-06-23 19:32:00,65.0,40.0,-100.00,SSW,205,4.0,9.0,40,0.00,,,0.01,153.000000,,2013-06-24 01:32:00,
2013-06-23 20:02:00,63.0,40.0,-100.00,SE,141,5.0,10.0,42,0.00,,,0.01,161.000000,,2013-06-24 02:02:00,
2013-06-23 20:11:00,63.0,40.0,-100.00,SE,141,5.0,10.0,42,0.00,,,0.01,161.000000,,2013-06-24 02:11:00,
2013-06-23 20:22:00,63.0,40.0,-100.00,SE,141,5.0,10.0,42,0.00,,,0.01,161.000000,,2013-06-24 02:22:00,
2013-06-23 20:33:00,63.0,40.0,-100.00,SE,141,5.0,10.0,42,0.00,,,0.01,161.000000,,2013-06-24 02:33:00,
2013-06-23 21:01:00,58.0,40.0,-100.00,ESE,110,3.0,8.0,51,0.00,,,0.01,16.000000,,2013-06-24 03:01:00,
2013-06-23 21:11:00,58.0,40.0,-100.00,ESE,110,3.0,8.0,51,0.00,,,0.01,16.000000,,2013-06-24 03:11:00,
2013-06-23 21:22:00,58.0,40.0,-100.00,ESE,110,3.0,8.0,51,0.00,,,0.01,16.000000,,2013-06-24 03:22:00,
2013-06-23 21:33:00,58.0,40.0,-100.00,ESE,110,3.0,8.0,51,0.00,,,0.01,16.000000,,2013-06-24 03:33:00,
2013-06-23 22:02:00,55.0,42.0,-100.00,SE,126,5.0,12.0,62,0.00,,,0.01,1.000000,,2013-06-24 04:02:00,
2013-06-23 22:12:00,55.0,42.0,-100.00,SE,126,5.0,12.0,62,0.00,,,0.01,1.000000,,2013-06-24 04:12:00,
2013-06-23 22:22:00,55.0,42.0,-100.00,SE,126,5.0,12.0,62,0.00,,,0.01,1.000000,,2013-06-24 04:22:00,
2013-06-23 22:33:00,55.0,42.0,-100.00,SE,126,5.0,12.0,62,0.00,,,0.01,1.000000,,2013-06-24 04:33:00,
2013-06-23 23:02:00,56.0,44.0,-100.00,SE,126,7.0,15.0,64,0.00,,,0.01,0.000000,,2013-06-24 05:02:00,
2013-06-23 23:12:00,56.0,44.0,-100.00,SE,126,7.0,15.0,64,0.00,,,0.01,0.000000,,2013-06-24 05:12:00,
2013-06-23 23:22:00,56.0,44.0,-100.00,SE,126,7.0,15.0,64,0.00,,,0.01,0.000000,,2013-06-24 05:22:00,
2013-06-23 23:35:00,56.0,44.0,-100.00,SE,126,7.0,15.0,64,0.00,,,0.01,0.000000,,2013-06-24 05:35:00,